To NAV CANADA Home Page Login to a new session Search on AWWS site Feedback and Comments Disclaimer Vers la page française équivalente Tips FAQ What's new on the site To the Forecasts and Observations / NOTAM section To "File a Flight Plan" website Publications and other links Update of the User's profile FIC Telephone Numbers My Weather Data Folder Route Weather Data Regional Weather Data Local Weather Data To the Forecasts and Observations / NOTAM section
Request Generated 05/25/2016 at 18:45:18 UTC . Weather information available at that time is displayed.

METAR/TAF

HOPE/BC    (show WxCam)

METAR CYHE 251800Z AUTO 29009KT 260V340 9SM FEW047 SCT065 OVC077
17/11 A3008 RMK SLP189=
METAR CYHE 251700Z AUTO 30006KT 250V340 9SM FEW050 OVC070 16/11 A3008
RMK SLP188=
METAR CYHE 251600Z AUTO 27006KT 260V320 9SM FEW031 SCT050 OVC070
15/11 A3007 RMK SLP186=

CYHE - No TAF is issued for this station

Your time UTC time
Weather data provided by Environment Canada and NAV CANADA